AAL1518 KDCA-KCLT

Flight info

Callsign AAL1518
Flight time 1h 3m
Altitude 32000
Route SCRAM6 GLANC AIROW CHSLY6
Aircraft A320/M-SDE3FGHIRWY/LB1

Departure

Time 2026-04-25 18:49
Airport Ronald Reagan Washington National Airport (KDCA)

Arrival

Time 2026-04-25 19:52
Airport Charlotte Douglas International Airport (KCLT)
Time Latitude Longitude Altitude Speed Heading
2026-04-25 18:35 38.85481 -77.04107 24 ft 0 kts 217°
2026-04-25 18:43 38.85496 -77.04092 26 ft 3 kts 223°
2026-04-25 18:43 38.85511 -77.04072 28 ft 3 kts 232°
2026-04-25 18:43 38.85522 -77.04050 25 ft 3 kts 246°
2026-04-25 18:43 38.85528 -77.04032 26 ft 1 kts 253°
2026-04-25 18:44 38.85529 -77.04029 26 ft 0 kts 253°
2026-04-25 18:47 38.85533 -77.04041 26 ft 5 kts 304°
2026-04-25 18:47 38.85604 -77.04038 24 ft 15 kts 355°
2026-04-25 18:47 38.85715 -77.04049 25 ft 17 kts 355°
2026-04-25 18:47 38.85835 -77.04062 29 ft 18 kts 355°
2026-04-25 18:48 38.85935 -77.04006 26 ft 16 kts 54°
2026-04-25 18:48 38.86032 -77.03946 24 ft 15 kts 15°
2026-04-25 18:48 38.86092 -77.03881 23 ft 1 kts 122°
2026-04-25 18:48 38.86069 -77.03870 23 ft 14 kts 166°
2026-04-25 18:49 38.85793 -77.03842 27 ft 75 kts 174°
2026-04-25 18:49 38.85052 -77.03763 24 ft 135 kts 174°
2026-04-25 18:49 38.83992 -77.03670 236 ft 161 kts 171°
2026-04-25 18:49 38.82878 -77.03590 899 ft 161 kts 174°
2026-04-25 18:50 38.81746 -77.03578 1314 ft 171 kts 175°
2026-04-25 18:50 38.80441 -77.03556 1690 ft 202 kts 174°
2026-04-25 18:50 38.78967 -77.03534 2475 ft 223 kts 175°
2026-04-25 18:50 38.77328 -77.03501 3279 ft 243 kts 178°
2026-04-25 18:51 38.75653 -77.03860 4301 ft 254 kts 202°
2026-04-25 18:51 38.75108 -77.04198 4648 ft 258 kts 212°
2026-04-25 18:51 38.73037 -77.06975 6421 ft 262 kts 232°
2026-04-25 18:51 38.71890 -77.08814 7495 ft 264 kts 232°
2026-04-25 18:52 38.70743 -77.10656 8615 ft 266 kts 232°
2026-04-25 18:52 38.69582 -77.12513 9746 ft 267 kts 232°
2026-04-25 18:52 38.68405 -77.14389 10402 ft 278 kts 232°
2026-04-25 18:52 38.67154 -77.16378 10584 ft 301 kts 232°
2026-04-25 18:53 38.65814 -77.18503 11070 ft 311 kts 232°
2026-04-25 18:53 38.64444 -77.20672 11702 ft 315 kts 232°
2026-04-25 18:53 38.63052 -77.22876 12333 ft 320 kts 232°
2026-04-25 18:53 38.61643 -77.25108 13009 ft 324 kts 231°
2026-04-25 18:54 38.59267 -77.28870 14088 ft 329 kts 232°
2026-04-25 18:54 38.57820 -77.31160 14671 ft 333 kts 232°
2026-04-25 18:54 38.55881 -77.34222 15423 ft 337 kts 232°
2026-04-25 18:55 38.54880 -77.35803 15795 ft 340 kts 232°
2026-04-25 18:55 38.53380 -77.38171 16357 ft 343 kts 232°
2026-04-25 18:55 38.51862 -77.40562 16938 ft 347 kts 233°
2026-04-25 18:55 38.50361 -77.42922 17495 ft 350 kts 233°
2026-04-25 18:56 38.48804 -77.45368 18058 ft 354 kts 233°
2026-04-25 18:56 38.47242 -77.47820 18574 ft 357 kts 233°
2026-04-25 18:56 38.45666 -77.50295 19106 ft 360 kts 233°
2026-04-25 18:56 38.44092 -77.52762 19630 ft 363 kts 233°
2026-04-25 18:57 38.42495 -77.55269 20172 ft 366 kts 233°
2026-04-25 18:57 38.40883 -77.57806 20707 ft 368 kts 233°
2026-04-25 18:57 38.39262 -77.60357 21224 ft 371 kts 233°
2026-04-25 18:57 38.38179 -77.62058 21560 ft 373 kts 233°
2026-04-25 18:58 38.35994 -77.65481 22234 ft 377 kts 233°
2026-04-25 18:58 38.32644 -77.70705 23243 ft 382 kts 232°
2026-04-25 18:58 38.30952 -77.73333 23689 ft 385 kts 232°
2026-04-25 18:59 38.27540 -77.78641 24543 ft 388 kts 233°
2026-04-25 18:59 38.24123 -77.83957 25384 ft 390 kts 233°
2026-04-25 19:00 38.20670 -77.89331 26228 ft 393 kts 233°
2026-04-25 19:00 38.18934 -77.92029 26628 ft 394 kts 233°
2026-04-25 19:01 38.15461 -77.97407 27402 ft 397 kts 232°
2026-04-25 19:01 38.13694 -78.00135 27802 ft 398 kts 232°
2026-04-25 19:01 38.11951 -78.02826 28162 ft 399 kts 233°
2026-04-25 19:01 38.10179 -78.05564 28533 ft 401 kts 233°
2026-04-25 19:02 38.06621 -78.11052 29269 ft 404 kts 233°
2026-04-25 19:02 38.04830 -78.13813 29606 ft 406 kts 233°
2026-04-25 19:02 38.03016 -78.16600 29956 ft 408 kts 233°
2026-04-25 19:03 37.99996 -78.21237 30442 ft 411 kts 233°
2026-04-25 19:03 37.97586 -78.24937 30974 ft 409 kts 233°
2026-04-25 19:03 37.95770 -78.27718 31377 ft 408 kts 233°
2026-04-25 19:04 37.92150 -78.33274 31882 ft 404 kts 233°
2026-04-25 19:04 37.90402 -78.35950 31892 ft 395 kts 233°
2026-04-25 19:05 37.83439 -78.46579 31890 ft 391 kts 233°
2026-04-25 19:06 37.79962 -78.51883 31886 ft 391 kts 233°
2026-04-25 19:06 37.74766 -78.59784 31887 ft 391 kts 233°
2026-04-25 19:07 37.69562 -78.67685 31876 ft 391 kts 233°
2026-04-25 19:08 37.64324 -78.75605 31858 ft 391 kts 233°
2026-04-25 19:09 37.57940 -78.85228 31880 ft 391 kts 233°
2026-04-25 19:10 37.52126 -78.93990 31875 ft 391 kts 233°
2026-04-25 19:10 37.48628 -78.99249 31875 ft 391 kts 232°
2026-04-25 19:11 37.45120 -79.04480 31875 ft 391 kts 231°
2026-04-25 19:11 37.40923 -79.08812 31874 ft 396 kts 219°
2026-04-25 19:12 37.36388 -79.12762 31876 ft 395 kts 219°
2026-04-25 19:12 37.31863 -79.16715 31877 ft 395 kts 219°
2026-04-25 19:13 37.27373 -79.20636 31879 ft 395 kts 219°
2026-04-25 19:13 37.22861 -79.24589 31868 ft 394 kts 219°
2026-04-25 19:14 37.18412 -79.28597 31847 ft 395 kts 220°
2026-04-25 19:14 37.13958 -79.32653 31846 ft 395 kts 220°
2026-04-25 19:15 37.09478 -79.36698 31844 ft 396 kts 219°
2026-04-25 19:15 37.05014 -79.40707 31846 ft 396 kts 219°
2026-04-25 19:16 37.00550 -79.44697 31860 ft 396 kts 219°
2026-04-25 19:16 36.95985 -79.48579 31849 ft 396 kts 218°
2026-04-25 19:17 36.91388 -79.52398 31853 ft 396 kts 218°
2026-04-25 19:17 36.86816 -79.56228 31850 ft 395 kts 218°
2026-04-25 19:18 36.82277 -79.60055 31856 ft 395 kts 218°
2026-04-25 19:18 36.77742 -79.63873 31544 ft 386 kts 218°
2026-04-25 19:18 36.75533 -79.65719 31289 ft 378 kts 218°
2026-04-25 19:19 36.73361 -79.67532 31046 ft 374 kts 218°
2026-04-25 19:19 36.71199 -79.69341 30817 ft 372 kts 218°
2026-04-25 19:19 36.69053 -79.71139 30578 ft 370 kts 218°
2026-04-25 19:19 36.67630 -79.72334 30425 ft 370 kts 218°
2026-04-25 19:20 36.64811 -79.74696 30117 ft 368 kts 217°
2026-04-25 19:20 36.62689 -79.76474 29869 ft 364 kts 217°
2026-04-25 19:20 36.60586 -79.78230 29458 ft 362 kts 217°
2026-04-25 19:20 36.58525 -79.79946 29081 ft 359 kts 217°
2026-04-25 19:21 36.56454 -79.81672 28689 ft 357 kts 217°
2026-04-25 19:21 36.52339 -79.85091 27900 ft 352 kts 217°
2026-04-25 19:21 36.50301 -79.86781 27520 ft 350 kts 217°
2026-04-25 19:22 36.48302 -79.88441 27146 ft 348 kts 217°
2026-04-25 19:22 36.46291 -79.90113 26761 ft 347 kts 217°
2026-04-25 19:22 36.42299 -79.93425 25980 ft 343 kts 217°
2026-04-25 19:23 36.40317 -79.95066 25585 ft 342 kts 217°
2026-04-25 19:23 36.36370 -79.98337 24779 ft 339 kts 217°
2026-04-25 19:23 36.34410 -79.99962 24375 ft 339 kts 217°
2026-04-25 19:24 36.32451 -80.01588 23946 ft 339 kts 216°
2026-04-25 19:24 36.30486 -80.03212 23546 ft 338 kts 216°
2026-04-25 19:24 36.26596 -80.06413 22680 ft 335 kts 216°
2026-04-25 19:25 36.22735 -80.09587 21853 ft 332 kts 216°
2026-04-25 19:25 36.20813 -80.11167 21446 ft 330 kts 216°
2026-04-25 19:25 36.18906 -80.12735 21041 ft 329 kts 216°
2026-04-25 19:26 36.17001 -80.14303 20635 ft 327 kts 216°
2026-04-25 19:26 36.15102 -80.15865 20228 ft 327 kts 216°
2026-04-25 19:26 36.13203 -80.17427 19804 ft 326 kts 216°
2026-04-25 19:26 36.11318 -80.18978 19412 ft 326 kts 216°
2026-04-25 19:27 36.09450 -80.20512 18999 ft 325 kts 216°
2026-04-25 19:27 36.08814 -80.21033 18865 ft 325 kts 216°
2026-04-25 19:27 36.05671 -80.23605 18198 ft 325 kts 216°
2026-04-25 19:27 36.03802 -80.25135 17752 ft 324 kts 215°
2026-04-25 19:28 36.01919 -80.26675 17343 ft 323 kts 215°
2026-04-25 19:28 36.00048 -80.28204 16942 ft 321 kts 215°
2026-04-25 19:28 35.98191 -80.29722 16545 ft 319 kts 215°
2026-04-25 19:28 35.96339 -80.31236 16149 ft 318 kts 215°
2026-04-25 19:29 35.94500 -80.32741 15766 ft 316 kts 214°
2026-04-25 19:29 35.92691 -80.34219 15384 ft 315 kts 214°
2026-04-25 19:29 35.90859 -80.35712 14996 ft 315 kts 214°
2026-04-25 19:29 35.89031 -80.37197 14605 ft 315 kts 214°
2026-04-25 19:30 35.87200 -80.38689 14241 ft 314 kts 214°
2026-04-25 19:30 35.85395 -80.40159 14116 ft 305 kts 214°
2026-04-25 19:30 35.83638 -80.41587 13975 ft 299 kts 214°
2026-04-25 19:30 35.81955 -80.43036 13728 ft 300 kts 217°
2026-04-25 19:31 35.80289 -80.44604 13311 ft 300 kts 218°
2026-04-25 19:31 35.78664 -80.46199 12969 ft 298 kts 219°
2026-04-25 19:31 35.77051 -80.47797 12593 ft 296 kts 219°
2026-04-25 19:31 35.75437 -80.49357 12284 ft 294 kts 214°
2026-04-25 19:32 35.73629 -80.50509 11917 ft 293 kts 200°
2026-04-25 19:32 35.71688 -80.51277 11561 ft 292 kts 199°
2026-04-25 19:32 35.69752 -80.52024 11230 ft 291 kts 199°
2026-04-25 19:32 35.69120 -80.52266 11132 ft 291 kts 198°
2026-04-25 19:33 35.65915 -80.53493 10682 ft 288 kts 198°
2026-04-25 19:33 35.64000 -80.54226 10385 ft 287 kts 198°
2026-04-25 19:33 35.62092 -80.54959 10083 ft 285 kts 198°
2026-04-25 19:33 35.60223 -80.55677 9955 ft 277 kts 199°
2026-04-25 19:34 35.58549 -80.56723 9866 ft 265 kts 220°
2026-04-25 19:34 35.57425 -80.58401 9875 ft 257 kts 242°
2026-04-25 19:34 35.56932 -80.60504 9877 ft 259 kts 265°
2026-04-25 19:34 35.56898 -80.62725 9896 ft 259 kts 266°
2026-04-25 19:35 35.56877 -80.64946 9895 ft 260 kts 267°
2026-04-25 19:35 35.56853 -80.67171 9894 ft 260 kts 267°
2026-04-25 19:35 35.56892 -80.69365 9892 ft 252 kts 270°
2026-04-25 19:35 35.56984 -80.71459 9893 ft 239 kts 268°
2026-04-25 19:36 35.56947 -80.73472 9896 ft 236 kts 261°
2026-04-25 19:36 35.56726 -80.75488 9556 ft 241 kts 261°
2026-04-25 19:36 35.56562 -80.77550 8903 ft 246 kts 264°
2026-04-25 19:36 35.56312 -80.79634 8231 ft 247 kts 250°
2026-04-25 19:37 35.55603 -80.81483 7947 ft 234 kts 242°
2026-04-25 19:37 35.54892 -80.83232 7791 ft 225 kts 243°
2026-04-25 19:37 35.54205 -80.84937 7378 ft 221 kts 243°
2026-04-25 19:37 35.53519 -80.86635 6938 ft 220 kts 243°
2026-04-25 19:38 35.52841 -80.88309 6514 ft 218 kts 243°
2026-04-25 19:38 35.52166 -80.89971 6077 ft 217 kts 243°
2026-04-25 19:38 35.51496 -80.91616 5639 ft 214 kts 243°
2026-04-25 19:38 35.50834 -80.93229 5496 ft 210 kts 240°
2026-04-25 19:39 35.49929 -80.94600 5500 ft 209 kts 220°
2026-04-25 19:39 35.48641 -80.95503 5506 ft 217 kts 200°
2026-04-25 19:39 35.47128 -80.95750 5413 ft 224 kts 181°
2026-04-25 19:39 35.45568 -80.95616 5161 ft 223 kts 179°
2026-04-25 19:40 35.44044 -80.95476 4886 ft 222 kts 180°
2026-04-25 19:40 35.42500 -80.95341 4599 ft 222 kts 179°
2026-04-25 19:40 35.41480 -80.95252 4401 ft 221 kts 179°
2026-04-25 19:40 35.39942 -80.95120 4106 ft 220 kts 180°
2026-04-25 19:41 35.37926 -80.94946 3726 ft 218 kts 180°
2026-04-25 19:41 35.36415 -80.94815 3443 ft 217 kts 180°
2026-04-25 19:41 35.35408 -80.94729 3262 ft 220 kts 180°
2026-04-25 19:41 35.34371 -80.94640 3057 ft 221 kts 179°
2026-04-25 19:42 35.31858 -80.94423 2576 ft 220 kts 178°
2026-04-25 19:42 35.30827 -80.94333 2391 ft 219 kts 180°
2026-04-25 19:42 35.29343 -80.94206 2100 ft 210 kts 179°
2026-04-25 19:42 35.27934 -80.94083 1872 ft 195 kts 180°
2026-04-25 19:43 35.26599 -80.93969 1604 ft 188 kts 181°
2026-04-25 19:43 35.25325 -80.93859 1342 ft 175 kts 180°
2026-04-25 19:43 35.24186 -80.93760 1119 ft 159 kts 181°
2026-04-25 19:43 35.23122 -80.93672 998 ft 154 kts 184°
2026-04-25 19:44 35.22074 -80.93560 1812 ft 150 kts 180°
2026-04-25 19:44 35.21019 -80.93414 2599 ft 162 kts 175°
2026-04-25 19:44 35.19980 -80.92626 3191 ft 196 kts 133°
2026-04-25 19:44 35.19453 -80.90982 3822 ft 221 kts 98°
2026-04-25 19:45 35.19715 -80.89046 3980 ft 241 kts 64°
2026-04-25 19:45 35.20758 -80.87486 3981 ft 240 kts 32°
2026-04-25 19:45 35.22297 -80.86764 4012 ft 237 kts
2026-04-25 19:45 35.23930 -80.86511 4001 ft 237 kts
2026-04-25 19:46 35.25567 -80.86389 4007 ft 234 kts 354°
2026-04-25 19:46 35.27194 -80.86487 4007 ft 234 kts 352°
2026-04-25 19:46 35.28799 -80.86661 4003 ft 234 kts 353°
2026-04-25 19:46 35.30422 -80.86825 4007 ft 234 kts 352°
2026-04-25 19:47 35.32006 -80.86967 4005 ft 221 kts 352°
2026-04-25 19:47 35.33490 -80.87092 4001 ft 208 kts 352°
2026-04-25 19:47 35.34901 -80.87199 3846 ft 201 kts 352°
2026-04-25 19:47 35.36218 -80.87516 3646 ft 186 kts 323°
2026-04-25 19:48 35.37035 -80.88621 3365 ft 171 kts 283°
2026-04-25 19:48 35.37014 -80.90014 3097 ft 166 kts 246°
2026-04-25 19:48 35.36350 -80.91189 3008 ft 170 kts 231°
2026-04-25 19:48 35.35579 -80.92292 3008 ft 174 kts 231°
2026-04-25 19:49 35.34782 -80.93396 2993 ft 175 kts 224°
2026-04-25 19:49 35.34134 -80.93985 2904 ft 175 kts 211°
2026-04-25 19:49 35.32567 -80.94479 2698 ft 177 kts 181°
2026-04-25 19:49 35.31356 -80.94381 2509 ft 169 kts 182°
2026-04-25 19:50 35.29193 -80.94192 2082 ft 147 kts 179°
2026-04-25 19:50 35.28188 -80.94109 1913 ft 141 kts 181°
2026-04-25 19:50 35.27206 -80.94014 1695 ft 143 kts 180°
2026-04-25 19:51 35.26210 -80.93926 1511 ft 144 kts 183°
2026-04-25 19:51 35.25213 -80.93842 1321 ft 141 kts 182°
2026-04-25 19:51 35.24244 -80.93755 1120 ft 141 kts 180°
2026-04-25 19:51 35.23291 -80.93679 950 ft 140 kts 179°
2026-04-25 19:52 35.22314 -80.93600 740 ft 139 kts 180°
2026-04-25 19:52 35.21497 -80.93536 735 ft 93 kts 174°
2026-04-25 19:52 35.21020 -80.93495 734 ft 50 kts 176°
2026-04-25 19:52 35.20790 -80.93491 736 ft 16 kts 216°
2026-04-25 19:53 35.20770 -80.93586 733 ft 0 kts 265°
2026-04-25 19:54 35.20770 -80.93587 733 ft 1 kts 265°
2026-04-25 19:55 35.20805 -80.93608 733 ft 11 kts 354°
2026-04-25 19:55 35.20931 -80.93621 733 ft 23 kts 357°
2026-04-25 19:55 35.21135 -80.93639 733 ft 34 kts 354°
2026-04-25 19:55 35.21371 -80.93658 733 ft 29 kts 355°
2026-04-25 19:56 35.21511 -80.93672 733 ft 12 kts 355°
2026-04-25 19:56 35.21595 -80.93720 733 ft 17 kts 310°
2026-04-25 19:56 35.21682 -80.93851 732 ft 23 kts 315°
2026-04-25 19:56 35.21775 -80.93951 732 ft 10 kts 318°
2026-04-25 19:57 35.21836 -80.94017 732 ft 13 kts 318°
2026-04-25 19:57 35.21909 -80.94098 732 ft 15 kts 317°
2026-04-25 19:57 35.21937 -80.94146 731 ft 6 kts 272°
2026-04-25 19:57 35.21934 -80.94183 732 ft 2 kts 260°
2026-04-25 19:58 35.21929 -80.94217 732 ft 1 kts 259°